小惑星A/2018 V3

A/2018 V3

English version
Home page
Updated on August 19, 2019

---------------------------------------------------------------------

・ プロフィール

発見日 2018年11月12日
発見光度 21.9等
発見者 Pan-STARRS 2 (Haleakala)

・ 写真集

・ 軌道要素

Epoch 2019 Aug. 25.0 TT = JDT 2458720.5                                         
T 2019 Sept. 8.69995 TT                                 Williams                
q   1.3395046            (2000.0)            P               Q                  
z  +0.0082136      Peri.    3.50039     +0.57742196     -0.79095595             
 +/-0.0000023      Node   308.65554     -0.75522886     -0.61164212             
e   0.9889978      Incl.  164.97713     -0.31018259     +0.01681090             
H   15.7                                                                        
From 114 observations 2018 Nov. 2-2019 Aug. 9, mean residual 0".3.              

・ 星図

・ 光度変化

        H = 15.5  G = 0.15

---------------------------------------------------------------------

軌道要素はM.P.E.C. 2019-Q04に掲載されたものです。
星図はステラナビゲータ Ver.10 (アストロアーツ) で作成したものです。
光度グラフはComet for Windowsで作成したものです。

---------------------------------------------------------------------

Copyright(C) Seiichi Yoshida (comet@aerith.net). All rights reserved.